Flag for Singapore Weather past 2 weeks in Singapore, Singapore

Now
82 °F

Partly sunny.


Feels Like: 87 °F
Forecast: 76 / 89 °F
Wind: 10 mph from Northeast

Location: Singapore / Paya Lebar

Current Time: Jan 25, 2015 at 8:14:13 PM

Latest Report: Jan 25, 2015 at 7:00 PM


Visibility: 5 mi

Pressure: 29.89 "Hg

Humidity: 70%

Dew point: 72 °F

Location of SingaporeLocation

Historic Weather in Singapore — Graph

°F

Singapore temperature yesterday

Maximum temperature yesterday: 86 °F (at 1:00 PM)
Minimum temperature yesterday: 77 °F (at 5:00 AM)
Average temperature yesterday: 81 °F

Past Weeks' High & Low Weather Summary

 TemperatureHumidityPressure
High90 °F (Jan 12, 1:00 PM)94% (Jan 10, 9:00 PM)30.01 "Hg (Jan 10, 9:00 PM)
Low75 °F (Jan 20, 6:00 AM)46% (Jan 17, 3:00 PM)29.74 "Hg (Jan 12, 4:00 PM)
Average82 °F72%29.89 "Hg
* Reported Jan 10 7:00 PM — Jan 25 7:00 PM, Singapore, Weather by CustomWeather, © 2014

Note: Actual official high and low records may vary slightly from our data, if they occured in-between our weather recording intervals... More about our weather records

Advertising

Singapore weather history for previous 24 hours

 ConditionsComfort  
Time TempWeatherWind HumidityBarometerVisibility
7:00 PM
Jan 25
82 °FPartly sunny.10 mph70%29.89 "Hg5 mi
6:00 PM84 °FPartly sunny.12 mph66%29.89 "Hg5 mi
5:00 PM86 °FPartly sunny.13 mph62%29.86 "HgN/A
4:00 PM86 °FPartly sunny.12 mph62%29.86 "HgN/A
3:00 PM88 °FPartly sunny.12 mph59%29.89 "HgN/A
2:00 PM86 °FPartly sunny.10 mph62%29.92 "HgN/A
1:00 PM86 °FPartly sunny.10 mph62%29.95 "HgN/A
12:00 PM84 °FPartly sunny.14 mph66%29.95 "HgN/A
11:00 AM82 °FPartly sunny.12 mph70%29.98 "Hg6 mi
10:00 AM81 °FPartly sunny.9 mph74%29.95 "Hg6 mi
9:00 AM79 °FPartly sunny.9 mph79%29.95 "Hg5 mi
8:00 AM77 °FPartly sunny.7 mph83%29.92 "Hg5 mi
7:00 AM77 °FPassing clouds.9 mph83%29.92 "Hg5 mi
6:00 AM77 °FPartly cloudy.9 mph83%29.89 "Hg5 mi
5:00 AM77 °FPassing clouds.8 mph83%29.89 "Hg6 mi
11:00 PM
Jan 24
79 °FPassing clouds.8 mph79%29.92 "HgN/A
10:00 PM81 °FPassing clouds.9 mph79%29.92 "HgN/A
9:00 PM81 °FPassing clouds.9 mph74%29.92 "HgN/A
8:00 PM81 °FPartly cloudy.10 mph74%29.89 "HgN/A
Weather by CustomWeather, © 2014

See weather overviewHow to use our weather pages